Location: Zagreb
(45.8000°N, 16.0000°E)
Time: 22:56:55
(UTC+01:00)

NUDT-PHONESAT - Visible Passes

Search period start: 30 October 2020 00:00
Search period end: 09 November 2020 00:00
Orbit: 484 x 499 km, 97.4° (Epoch: 30 October)

Date Brightness Start Highest point End Pass type
(mag) Time Alt. Az. Time Alt. Az. Time Alt. Az.
30 Oct ? 18:39:10 10° SW 18:41:52 19° W 18:44:35 10° NW visible
31 Oct ? 18:16:12 10° SSW 18:19:34 34° W 18:22:57 10° NNW visible
01 Nov ? 05:42:25 10° NE 05:44:46 16° E 05:47:07 10° SE visible
01 Nov ? 17:53:41 10° S 17:57:20 64° W 18:01:00 10° NNW visible
02 Nov ? 17:31:30 10° SSE 17:35:08 67° ENE 17:38:49 10° N visible
03 Nov ? 17:09:39 10° SE 17:13:02 35° ENE 17:16:25 10° N visible
03 Nov ? 18:44:16 10° SW 18:46:44 17° W 18:49:13 10° NW visible
04 Nov ? 18:21:08 10° SSW 18:24:24 30° W 18:27:40 10° NNW visible
05 Nov ? 05:47:01 10° NE 05:49:36 18° E 05:52:10 10° SE visible
05 Nov ? 17:58:30 10° S 18:02:06 56° W 18:05:44 10° NNW visible
06 Nov ? 05:26:48 10° E 05:27:11 10° E 05:27:33 10° E visible
06 Nov ? 17:36:14 10° SSE 17:39:53 77° ENE 17:43:34 10° N visible
07 Nov ? 17:14:17 10° SE 17:17:44 40° ENE 17:21:12 10° N visible
07 Nov ? 18:49:18 10° SW 18:51:30 15° W 18:53:42 10° NW visible
08 Nov ? 18:25:59 10° SSW 18:29:07 26° W 18:32:16 10° NW visible
